"Period start","avg(HW err(1)/warn(2) (#))","avg(Visibility (m))","avg(Weather code (#))","avg(Precip intensity (mm/h))","min(HW err(1)/warn(2) (#))","max(HW err(1)/warn(2) (#))","std(HW err(1)/warn(2) (#))","med(HW err(1)/warn(2) (#))","min(Visibility (m))","max(Visibility (m))","std(Visibility (m))","med(Visibility (m))","min(Weather code (#))","max(Weather code (#))","std(Weather code (#))","med(Weather code (#))","min(Precip intensity (mm/h))","max(Precip intensity (mm/h))","std(Precip intensity (mm/h))","med(Precip intensity (mm/h))"
2014-04-15 00:00:00,1,,,,1,1,0,1,,,,,,,,,,,,
2014-04-15 00:10:00,1,,,,1,1,0,1,,,,,,,,,,,,
2014-04-15 00:20:00,1,,,,1,1,0,1,,,,,,,,,,,,
2014-04-15 00:30:00,1,,,,1,1,0,1,,,,,,,,,,,,
2014-04-15 00:40:00,1,,,,1,1,0,1,,,,,,,,,,,,
2014-04-15 00:50:00,1,,,,1,1,0,1,,,,,,,,,,,,
2014-04-15 01:00:00,1,,,,1,1,0,1,,,,,,,,,,,,
2014-04-15 01:10:00,1,,,,1,1,0,1,,,,,,,,,,,,
2014-04-15 01:20:00,1,,,,1,1,0,1,,,,,,,,,,,,
2014-04-15 01:30:00,1,,,,1,1,0,1,,,,,,,,,,,,
2014-04-15 01:40:00,1,,,,1,1,0,1,,,,,,,,,,,,
2014-04-15 01:50:00,1,,,,1,1,0,1,,,,,,,,,,,,
2014-04-15 02:00:00,1,,,,1,1,0,1,,,,,,,,,,,,
2014-04-15 02:10:00,1,,,,1,1,0,1,,,,,,,,,,,,
2014-04-15 02:20:00,1,,,,1,1,0,1,,,,,,,,,,,,
2014-04-15 02:30:00,1,,,,1,1,0,1,,,,,,,,,,,,
2014-04-15 02:40:00,1,,,,1,1,0,1,,,,,,,,,,,,
2014-04-15 02:50:00,1,,,,1,1,0,1,,,,,,,,,,,,
2014-04-15 03:00:00,1,,,,1,1,0,1,,,,,,,,,,,,
2014-04-15 03:10:00,1,,,,1,1,0,1,,,,,,,,,,,,
2014-04-15 03:20:00,1,,,,1,1,0,1,,,,,,,,,,,,
2014-04-15 03:30:00,1,,,,1,1,0,1,,,,,,,,,,,,
2014-04-15 03:40:00,1,,,,1,1,0,1,,,,,,,,,,,,
2014-04-15 03:50:00,1,,,,1,1,0,1,,,,,,,,,,,,
2014-04-15 04:00:00,1,9842,,0.00,1,2,0,1,8613,11071,1229,9842,,,,,0.00,0.00,0.00,0.00
2014-04-15 04:10:00,2,14552,0,0.00,2,2,0,2,5826,26498,7028,10588,0,0,0,0,0.00,0.00,0.00,0.00
2014-04-15 04:20:00,2,10083,4,0.00,2,2,0,2,3525,18102,3881,10092,0,10,5,0,0.00,0.00,0.00,0.00
2014-04-15 04:30:00,2,5212,10,0.00,2,2,0,2,2995,8578,1369,5048,10,10,0,10,0.00,0.00,0.00,0.00
2014-04-15 04:40:00,1,7590,10,0.00,1,2,0,1,6866,8243,564,7660,10,10,0,10,0.00,0.00,0.00,0.00
2014-04-15 04:50:00,1,,,,1,1,0,1,,,,,,,,,,,,
2014-04-15 05:00:00,1,,,,1,1,0,1,,,,,,,,,,,,
2014-04-15 05:10:00,1,,,,1,1,0,1,,,,,,,,,,,,
2014-04-15 05:20:00,1,,,,1,1,0,1,,,,,,,,,,,,
2014-04-15 05:30:00,1,,,,1,1,0,1,,,,,,,,,,,,
2014-04-15 05:40:00,1,,,,1,1,0,1,,,,,,,,,,,,
2014-04-15 05:50:00,1,,,,1,1,0,1,,,,,,,,,,,,
2014-04-15 06:00:00,1,,,,1,1,0,1,,,,,,,,,,,,
2014-04-15 06:10:00,1,,,,1,1,0,1,,,,,,,,,,,,
2014-04-15 06:20:00,1,,,,1,1,0,1,,,,,,,,,,,,
2014-04-15 06:30:00,1,,,,1,1,0,1,,,,,,,,,,,,
2014-04-15 06:40:00,1,,,,1,1,0,1,,,,,,,,,,,,
2014-04-15 06:50:00,2,11160,,0.00,1,2,0,2,0,28741,13678,0,,,,,0.00,0.00,0.00,0.00
2014-04-15 07:00:00,1,,,,1,1,0,1,,,,,,,,,,,,
2014-04-15 07:10:00,1,,,,1,1,0,1,,,,,,,,,,,,
2014-04-15 07:20:00,1,,,,1,1,0,1,,,,,,,,,,,,
2014-04-15 07:30:00,1,,,,1,1,0,1,,,,,,,,,,,,
2014-04-15 07:40:00,1,,,,1,1,0,1,,,,,,,,,,,,
2014-04-15 07:50:00,1,,,,1,1,0,1,,,,,,,,,,,,
2014-04-15 08:00:00,1,,,,1,1,0,1,,,,,,,,,,,,
2014-04-15 08:10:00,1,31911,,0.00,1,2,0,1,13822,50000,18089,31911,,,,,0.00,0.00,0.00,0.00
2014-04-15 08:20:00,2,40140,0,0.00,1,2,0,2,31817,47156,6490,41826,0,0,0,0,0.00,0.00,0.00,0.00
2014-04-15 08:30:00,1,,,,1,1,0,1,,,,,,,,,,,,
2014-04-15 08:40:00,1,,,,1,1,0,1,,,,,,,,,,,,
2014-04-15 08:50:00,1,0,,0.00,1,2,0,1,0,0,0,0,,,,,0.00,0.00,0.00,0.00
2014-04-15 09:00:00,1,0,,0.00,1,2,0,1,0,0,0,0,,,,,0.00,0.00,0.00,0.00
2014-04-15 09:10:00,2,32545,0,0.00,2,2,0,2,0,50000,21537,45650,0,0,0,0,0.00,0.00,0.00,0.00
2014-04-15 09:20:00,2,42666,0,0.00,2,2,0,2,34301,50000,5667,42950,0,0,0,0,0.00,0.00,0.00,0.00
2014-04-15 09:30:00,2,40723,0,0.00,2,2,0,2,29705,46653,5417,41558,0,0,0,0,0.00,0.00,0.00,0.00
2014-04-15 09:40:00,2,42934,0,0.00,2,2,0,2,33122,50000,6211,43384,0,0,0,0,0.00,0.00,0.00,0.00
2014-04-15 09:50:00,2,44413,0,0.00,2,2,0,2,23063,50000,9114,50000,0,0,0,0,0.00,0.00,0.00,0.00
2014-04-15 10:00:00,2,45291,0,0.00,2,2,0,2,33220,50000,5438,47085,0,0,0,0,0.00,0.00,0.00,0.00
2014-04-15 10:10:00,2,40998,0,0.00,2,2,0,2,16913,50000,8804,42588,0,0,0,0,0.00,0.00,0.00,0.00
2014-04-15 10:20:00,2,40921,0,0.00,2,2,0,2,22704,50000,11113,47047,0,0,0,0,0.00,0.00,0.00,0.00
2014-04-15 10:30:00,2,48506,0,0.00,2,2,0,2,42681,50000,2455,50000,0,0,0,0,0.00,0.00,0.00,0.00
2014-04-15 10:40:00,2,49642,0,0.00,2,2,0,2,47621,50000,718,50000,0,0,0,0,0.00,0.00,0.00,0.00
2014-04-15 10:50:00,2,49456,0,0.00,2,2,0,2,44565,50000,1630,50000,0,0,0,0,0.00,0.00,0.00,0.00
2014-04-15 11:00:00,2,49693,0,0.00,2,2,0,2,47320,50000,797,50000,0,0,0,0,0.00,0.00,0.00,0.00
2014-04-15 11:10:00,2,50000,0,0.00,2,2,0,2,50000,50000,0,50000,0,0,0,0,0.00,0.00,0.00,0.00
2014-04-15 11:20:00,2,49906,0,0.00,2,2,0,2,49055,50000,284,50000,0,0,0,0,0.00,0.00,0.00,0.00
2014-04-15 11:30:00,2,50000,0,0.00,2,2,0,2,50000,50000,0,50000,0,0,0,0,0.00,0.00,0.00,0.00
2014-04-15 11:40:00,2,50000,0,0.00,2,2,0,2,50000,50000,0,50000,0,0,0,0,0.00,0.00,0.00,0.00
2014-04-15 11:50:00,2,50000,0,0.00,2,2,0,2,50000,50000,0,50000,0,0,0,0,0.00,0.00,0.00,0.00
2014-04-15 12:00:00,2,50000,0,0.00,2,2,0,2,50000,50000,0,50000,0,0,0,0,0.00,0.00,0.00,0.00
2014-04-15 12:10:00,2,50000,0,0.00,2,2,0,2,50000,50000,0,50000,0,0,0,0,0.00,0.00,0.00,0.00
2014-04-15 12:20:00,2,50000,0,0.00,2,2,0,2,50000,50000,0,50000,0,0,0,0,0.00,0.00,0.00,0.00
2014-04-15 12:30:00,2,50000,0,0.00,2,2,0,2,50000,50000,0,50000,0,0,0,0,0.00,0.00,0.00,0.00
2014-04-15 12:40:00,2,50000,0,0.00,2,2,0,2,50000,50000,0,50000,0,0,0,0,0.00,0.00,0.00,0.00
2014-04-15 12:50:00,2,50000,0,0.00,2,2,0,2,50000,50000,0,50000,0,0,0,0,0.00,0.00,0.00,0.00
2014-04-15 13:00:00,2,50000,0,0.00,2,2,0,2,50000,50000,0,50000,0,0,0,0,0.00,0.00,0.00,0.00
2014-04-15 13:10:00,2,50000,0,0.00,2,2,0,2,50000,50000,0,50000,0,0,0,0,0.00,0.00,0.00,0.00
2014-04-15 13:20:00,2,50000,0,0.00,2,2,0,2,50000,50000,0,50000,0,0,0,0,0.00,0.00,0.00,0.00
2014-04-15 13:30:00,2,49995,0,0.00,2,2,0,2,49950,50000,15,50000,0,0,0,0,0.00,0.00,0.00,0.00
2014-04-15 13:40:00,2,50000,0,0.00,2,2,0,2,50000,50000,0,50000,0,0,0,0,0.00,0.00,0.00,0.00
2014-04-15 13:50:00,2,50000,0,0.00,2,2,0,2,50000,50000,0,50000,0,0,0,0,0.00,0.00,0.00,0.00
2014-04-15 14:00:00,2,49943,0,0.00,2,2,0,2,49431,50000,171,50000,0,0,0,0,0.00,0.00,0.00,0.00
2014-04-15 14:10:00,2,50000,0,0.00,2,2,0,2,50000,50000,0,50000,0,0,0,0,0.00,0.00,0.00,0.00
2014-04-15 14:20:00,2,50000,0,0.00,2,2,0,2,50000,50000,0,50000,0,0,0,0,0.00,0.00,0.00,0.00
2014-04-15 14:30:00,2,50000,0,0.00,2,2,0,2,50000,50000,0,50000,0,0,0,0,0.00,0.00,0.00,0.00
2014-04-15 14:40:00,2,50000,0,0.00,2,2,0,2,50000,50000,0,50000,0,0,0,0,0.00,0.00,0.00,0.00
2014-04-15 14:50:00,2,50000,0,0.00,2,2,0,2,50000,50000,0,50000,0,0,0,0,0.00,0.00,0.00,0.00
2014-04-15 15:00:00,2,50000,0,0.00,2,2,0,2,50000,50000,0,50000,0,0,0,0,0.00,0.00,0.00,0.00
2014-04-15 15:10:00,2,50000,0,0.00,2,2,0,2,50000,50000,0,50000,0,0,0,0,0.00,0.00,0.00,0.00
2014-04-15 15:20:00,2,50000,0,0.00,2,2,0,2,50000,50000,0,50000,0,0,0,0,0.00,0.00,0.00,0.00
2014-04-15 15:30:00,2,49851,0,0.00,2,2,0,2,48507,50000,448,50000,0,0,0,0,0.00,0.00,0.00,0.00
2014-04-15 15:40:00,2,50000,0,0.00,2,2,0,2,50000,50000,0,50000,0,0,0,0,0.00,0.00,0.00,0.00
2014-04-15 15:50:00,2,50000,0,0.00,2,2,0,2,50000,50000,0,50000,0,0,0,0,0.00,0.00,0.00,0.00
2014-04-15 16:00:00,2,50000,0,0.00,2,2,0,2,50000,50000,0,50000,0,0,0,0,0.00,0.00,0.00,0.00
2014-04-15 16:10:00,2,50000,0,0.00,2,2,0,2,50000,50000,0,50000,0,0,0,0,0.00,0.00,0.00,0.00
2014-04-15 16:20:00,2,50000,0,0.00,2,2,0,2,50000,50000,0,50000,0,0,0,0,0.00,0.00,0.00,0.00
2014-04-15 16:30:00,2,50000,0,0.00,2,2,0,2,50000,50000,0,50000,0,0,0,0,0.00,0.00,0.00,0.00
2014-04-15 16:40:00,2,50000,0,0.00,2,2,0,2,50000,50000,0,50000,0,0,0,0,0.00,0.00,0.00,0.00
2014-04-15 16:50:00,2,50000,0,0.00,2,2,0,2,50000,50000,0,50000,0,0,0,0,0.00,0.00,0.00,0.00
2014-04-15 17:00:00,2,50000,0,0.00,2,2,0,2,50000,50000,0,50000,0,0,0,0,0.00,0.00,0.00,0.00
2014-04-15 17:10:00,2,50000,0,0.00,2,2,0,2,50000,50000,0,50000,0,0,0,0,0.00,0.00,0.00,0.00
2014-04-15 17:20:00,2,50000,0,0.00,2,2,0,2,50000,50000,0,50000,0,0,0,0,0.00,0.00,0.00,0.00
2014-04-15 17:30:00,2,50000,0,0.00,2,2,0,2,50000,50000,0,50000,0,0,0,0,0.00,0.00,0.00,0.00
2014-04-15 17:40:00,2,50000,0,0.00,2,2,0,2,50000,50000,0,50000,0,0,0,0,0.00,0.00,0.00,0.00
2014-04-15 17:50:00,2,50000,0,0.00,2,2,0,2,50000,50000,0,50000,0,0,0,0,0.00,0.00,0.00,0.00
2014-04-15 18:00:00,2,50000,0,0.00,2,2,0,2,50000,50000,0,50000,0,0,0,0,0.00,0.00,0.00,0.00
2014-04-15 18:10:00,2,49793,0,0.00,2,2,0,2,47926,50000,622,50000,0,0,0,0,0.00,0.00,0.00,0.00
2014-04-15 18:20:00,2,50000,0,0.00,2,2,0,2,50000,50000,0,50000,0,0,0,0,0.00,0.00,0.00,0.00
2014-04-15 18:30:00,2,50000,0,0.00,2,2,0,2,50000,50000,0,50000,0,0,0,0,0.00,0.00,0.00,0.00
2014-04-15 18:40:00,2,50000,0,0.00,2,2,0,2,50000,50000,0,50000,0,0,0,0,0.00,0.00,0.00,0.00
2014-04-15 18:50:00,2,50000,0,0.00,2,2,0,2,50000,50000,0,50000,0,0,0,0,0.00,0.00,0.00,0.00
2014-04-15 19:00:00,2,50000,0,0.00,2,2,0,2,50000,50000,0,50000,0,0,0,0,0.00,0.00,0.00,0.00
2014-04-15 19:10:00,2,49844,0,0.00,2,2,0,2,48880,50000,347,50000,0,0,0,0,0.00,0.00,0.00,0.00
2014-04-15 19:20:00,2,50000,0,0.00,2,2,0,2,50000,50000,0,50000,0,0,0,0,0.00,0.00,0.00,0.00
2014-04-15 19:30:00,2,50000,0,0.00,2,2,0,2,50000,50000,0,50000,0,0,0,0,0.00,0.00,0.00,0.00
2014-04-15 19:40:00,2,50000,0,0.00,2,2,0,2,50000,50000,0,50000,0,0,0,0,0.00,0.00,0.00,0.00
2014-04-15 19:50:00,2,49989,0,0.00,2,2,0,2,49887,50000,34,50000,0,0,0,0,0.00,0.00,0.00,0.00
2014-04-15 20:00:00,2,49388,0,0.00,2,2,0,2,45596,50000,1363,50000,0,0,0,0,0.00,0.00,0.00,0.00
2014-04-15 20:10:00,2,50000,0,0.00,2,2,0,2,50000,50000,0,50000,0,0,0,0,0.00,0.00,0.00,0.00
2014-04-15 20:20:00,2,49983,0,0.00,2,2,0,2,49830,50000,51,50000,0,0,0,0,0.00,0.00,0.00,0.00
2014-04-15 20:30:00,2,49010,0,0.00,2,2,0,2,47070,50000,1230,50000,0,0,0,0,0.00,0.00,0.00,0.00
2014-04-15 20:40:00,2,46089,0,0.00,2,2,0,2,37372,50000,5003,49428,0,0,0,0,0.00,0.00,0.00,0.00
2014-04-15 20:50:00,2,48952,0,0.00,2,2,0,2,44837,50000,1863,50000,0,0,0,0,0.00,0.00,0.00,0.00
2014-04-15 21:00:00,2,44477,0,0.00,2,2,0,2,33950,50000,6136,47572,0,0,0,0,0.00,0.00,0.00,0.00
2014-04-15 21:10:00,2,48487,0,0.00,2,2,0,2,42268,50000,2375,49836,0,0,0,0,0.00,0.00,0.00,0.00
2014-04-15 21:20:00,2,47400,0,0.00,2,2,0,2,39178,50000,3328,48964,0,0,0,0,0.00,0.00,0.00,0.00
2014-04-15 21:30:00,2,46586,0,0.00,2,2,0,2,36395,50000,4599,49644,0,0,0,0,0.00,0.00,0.00,0.00
2014-04-15 21:40:00,2,42903,0,0.00,2,2,0,2,33810,47403,3981,43410,0,0,0,0,0.00,0.00,0.00,0.00
2014-04-15 21:50:00,2,43663,0,0.00,2,2,0,2,38798,48979,3656,43088,0,0,0,0,0.00,0.00,0.00,0.00
2014-04-15 22:00:00,2,44868,0,0.00,2,2,0,2,37032,50000,4088,45191,0,0,0,0,0.00,0.00,0.00,0.00
2014-04-15 22:10:00,2,45208,0,0.00,2,2,0,2,41135,49815,3098,45810,0,0,0,0,0.00,0.00,0.00,0.00
2014-04-15 22:20:00,2,43435,0,0.00,2,2,0,2,36424,50000,5322,44117,0,0,0,0,0.00,0.00,0.00,0.00
2014-04-15 22:30:00,2,40124,0,0.00,2,2,0,2,30074,46373,5793,42906,0,0,0,0,0.00,0.00,0.00,0.00
2014-04-15 22:40:00,2,46334,0,0.00,2,2,0,2,32911,50000,6088,50000,0,0,0,0,0.00,0.00,0.00,0.00
2014-04-15 22:50:00,2,35609,0,0.00,2,2,0,2,21082,47397,8499,33944,0,0,0,0,0.00,0.00,0.00,0.00
2014-04-15 23:00:00,2,41590,0,0.00,2,2,0,2,35996,48042,4538,41528,0,0,0,0,0.00,0.00,0.00,0.00
2014-04-15 23:10:00,2,38282,0,0.00,2,2,0,2,28597,48852,5875,39746,0,0,0,0,0.00,0.00,0.00,0.00
2014-04-15 23:20:00,2,37179,0,0.00,2,2,0,2,23992,44734,5394,36728,0,0,0,0,0.00,0.00,0.00,0.00
2014-04-15 23:30:00,2,45246,0,0.00,2,2,0,2,28019,50000,6774,47448,0,0,0,0,0.00,0.00,0.00,0.00
2014-04-15 23:40:00,2,44408,0,0.00,2,2,0,2,36036,50000,5197,44605,0,0,0,0,0.00,0.00,0.00,0.00
2014-04-15 23:50:00,2,41744,0,0.00,2,2,0,2,31498,50000,7667,42990,0,0,0,0,0.00,0.00,0.00,0.00
